Wetbulb
48.28 47.78 48.46 48.63 48.81 47.52 49.68 52.47 47.53 56.98 59.56 51.61 51.91 46.50 47.88 47.69 50.84 53.29 51.28 51.30 50.23 49.48 49.83 49.80 48.99 48.98 51.13 53.68 53.74 50.55 53.87 53.22 48.13 49.08 52.86 53.55 52.75 51.19 51.76 46.43 45.38 47.04 45.67 45.11
48.18 47.81 48.18 48.30 48.39 47.82 47.23 48.97 51.81 59.92 58.12 48.52 49.30 50.64 49.14 50.06 49.24 50.74 50.74 49.96 51.46 52.22 51.16 49.15 50.21 50.94 54.13 54.37 53.82 52.34 55.00 51.76 46.63 47.24 50.55 52.38 50.83 51.70 51.93 51.64 51.02 46.52 43.83 45.31
48.09 48.45 48.04 48.09 48.26 47.87 49.38 50.08 47.71 55.17 56.64 55.03 49.95 48.96 49.27 48.80 52.55 51.05 51.77 51.33 52.37 50.92 50.55 54.12 51.88 50.70 52.92 55.08 54.79 53.89 57.02 53.45 50.06 45.64 48.10 51.28 49.43 50.24 51.20 51.26 47.49 46.93 46.85 47.60
47.68 48.52 48.20 48.16 48.11 47.63 49.48 49.53 48.49 47.74 48.17 50.49 49.36 49.67 49.29 48.48 48.25 52.20 53.20 51.36 50.71 50.01 48.42 51.62 51.06 53.66 52.85 53.94 53.94 55.04 56.64 50.48 51.57 51.12 50.94 51.30 50.62 49.78 49.74 49.17 50.29 46.73 48.38 47.84
47.93 47.58 48.09 47.90 47.94 47.32 49.62 44.21 42.66 45.17 44.73 48.30 48.83 46.96 48.98 47.26 48.82 49.72 50.10 50.31 51.42 52.71 50.99 52.94 51.20 53.42 53.97 52.76 54.43 54.29 56.25 50.91 51.90 49.06 50.37 50.62 49.00 50.37 50.49 50.22 49.80 49.32 49.61 48.95
47.81 47.87 47.77 47.73 47.91 48.21 46.29 46.27 48.16 41.81 43.33 44.71 45.60 48.67 45.73 46.77 48.76 50.96 51.82 50.81 50.59 52.32 52.05 53.35 54.77 57.42 56.81 56.48 54.58 53.90 53.86 52.55 50.55 46.29 49.78 49.31 46.25 49.87 50.22 50.25 51.19 50.48 46.78 50.68
47.37 47.82 47.74 47.64 47.74 47.74 47.11 45.62 43.13 42.55 40.41 41.90 42.71 42.64 44.15 45.55 47.18 46.14 49.11 50.92 51.51 54.39 57.04 57.06 55.14 55.91 55.23 55.39 54.94 57.18 54.04 53.23 51.80 47.09 48.28 40.44 49.91 52.52 51.74 50.16 50.86 51.34 51.21 52.03
47.08 47.43 47.55 47.23 47.45 47.06 47.51 45.52 42.36 39.36 38.47 41.47 41.03 42.61 43.51 45.51 47.21 46.80 48.89 51.00 54.82 55.56 55.83 52.25 50.14 50.24 50.09 51.17 52.14 53.37 55.99 53.25 49.19 45.28 42.78 47.28 48.13 50.15 50.27 49.32 48.35 52.29 51.85 53.29
47.22 47.19 47.33 47.67 47.12 47.26 47.46 45.57 46.04 41.36 39.22 41.93 42.89 40.95 42.22 42.54 44.84 46.20 48.61 53.11 54.04 55.68 53.96 51.10 46.13 44.25 48.09 47.49 49.75 53.66 53.52 55.95 51.25 48.19 43.41 40.60 49.71 52.99 53.51 52.71 45.58 53.54 54.20 54.23
47.25 47.19 47.35 47.30 47.01 46.96 46.90 45.43 48.37 43.03 38.75 43.67 44.31 43.13 41.39 44.31 44.53 43.57 46.99 47.46 49.71 54.98 50.74 47.79 46.07 46.11 50.75 45.82 46.71 47.36 49.49 50.69 48.19 46.74 45.85 47.86 52.82 52.88 54.13 44.45 48.61 54.78 55.29 55.60
47.26 47.18 47.01 46.98 47.01 47.01 46.79 43.94 46.64 42.48 39.25 40.79 42.27 43.18 41.41 42.68 42.89 39.64 44.46 44.35 49.86 50.47 48.59 45.55 46.30 45.36 49.83 49.63 51.36 50.26 49.13 47.83 47.60 48.83 45.80 42.95 55.67 52.46 48.83 55.20 57.47 56.58 56.55 56.52
46.95 47.10 46.82 46.98 46.62 46.91 47.06 43.14 46.03 45.38 38.36 40.57 45.01 44.60 45.98 45.63 45.17 41.80 42.60 43.34 44.25 47.54 47.54 50.74 49.29 45.02 49.63 49.30 45.83 51.78 48.78 53.22 50.45 51.40 50.27 58.25 57.22 56.61 58.14 59.05 57.08 57.45 57.72 57.53
46.70 46.90 47.07 46.92 46.83 46.91 46.97 44.87 44.86 42.40 39.33 40.65 42.27 42.72 46.80 49.06 47.88 47.90 39.05 43.67 46.28 50.29 50.04 48.86 49.35 47.23 47.71 42.84 48.16 47.72 51.77 52.57 52.87 52.62 55.03 56.03 56.90 57.47 58.12 57.86 57.78 58.62 59.02 57.73
46.18 46.44 46.95 46.90 46.91 46.73 46.65 44.93 45.54 43.51 38.73 33.37 39.22 46.20 44.39 48.04 48.96 49.00 47.50 45.83 48.88 48.99 47.33 47.42 48.94 47.79 51.80 48.83 47.31 45.64 50.05 51.05 50.75 52.37 54.16 55.66 56.73 57.79 58.11 57.45 58.38 57.79 57.89 57.14
46.14 46.38 46.61 47.03 46.92 46.62 47.01 47.62 47.14 45.84 38.57 35.16 37.26 43.02 46.37 47.96 47.34 44.76 46.69 46.38 45.14 42.91 41.23 40.70 46.54 52.46 51.18 51.83 49.38 49.04 51.49 50.36 49.91 49.91 55.73 55.94 56.18 59.02 59.17 57.05 57.03 57.30 56.56 55.96
46.45 46.82 46.89 46.89 46.46 45.67 45.45 40.45 46.63 46.13 43.93 35.60 34.24 44.19 43.68 46.27 47.64 46.94 45.48 45.76 45.06 44.65 42.52 44.07 43.06 51.67 51.22 48.58 47.09 53.36 54.86 56.28 57.20 55.24 57.94 58.26 58.98 60.58 59.14 57.91 57.69 57.57 57.23 56.91
46.18 46.44 46.71 46.63 46.29 46.16 41.09 39.37 44.49 45.89 44.76 36.72 33.23 38.21 45.24 45.98 47.55 47.70 45.90 46.68 45.11 44.82 44.19 43.20 46.59 47.95 49.01 49.54 47.29 52.95 53.60 54.80 56.06 57.11 57.11 55.97 57.96 57.06 58.62 58.79 58.19 56.50 57.81 57.08
46.57 46.78 46.64 46.23 45.87 45.04 42.43 46.44 46.24 46.77 40.94 39.46 32.32 35.34 40.36 46.49 41.93 43.79 47.07 43.54 44.19 44.05 43.40 45.28 44.37 48.99 48.56 44.49 52.06 53.86 54.22 54.59 54.85 56.07 57.67 57.93 59.71 58.46 57.86 58.19 56.79 55.83 55.10 55.11
46.26 45.65 45.26 45.13 43.49 39.50 42.04 45.19 45.19 46.29 41.29 33.59 34.62 32.15 35.15 45.67 44.15 43.74 45.53 45.28 40.05 45.64 41.49 42.62 45.38 43.74 43.41 48.12 50.64 52.84 54.09 53.86 55.01 56.13 56.89 56.76 57.17 56.89 56.77 56.38 56.18 55.43 54.72 54.46
45.48 44.00 40.03 37.35 42.94 44.79 45.72 42.14 38.10 36.82 38.07 39.06 34.02 39.53 36.20 41.46 41.54 39.07 41.70 45.22 41.40 39.02 42.60 46.29 42.04 41.95 48.19 50.79 51.75 53.08 53.89 53.19 55.16 54.29 54.41 55.64 56.22 56.28 56.42 56.27 57.00 57.02 55.61 54.76
41.21 38.39 38.00 44.13 43.77 44.98 41.30 34.06 33.27 34.37 30.08 35.61 36.33 37.33 35.67 42.34 36.08 36.84 41.93 40.06 43.08 37.81 42.53 41.56 40.78 40.60 45.14 49.09 50.78 52.35 53.42 53.50 53.11 55.14 57.29 57.90 57.85 57.18 56.91 56.71 56.89 56.91 55.81 54.52
41.96 42.55 44.64 45.17 40.45 36.56 31.64 31.96 33.69 30.69 30.63 37.91 37.01 37.54 39.59 40.78 43.43 38.61 40.47 39.13 40.90 36.82 47.02 42.14 38.90 45.06 48.92 49.07 49.40 50.33 51.94 52.69 53.31 54.03 54.13 55.71 56.72 57.99 58.08 57.46 56.60 56.54 56.09 55.32
43.87 41.04 36.78 36.48 34.84 28.03 27.33 26.32 30.51 30.50 37.45 40.70 39.55 36.43 38.29 40.64 41.63 39.50 39.27 35.27 36.59 46.38 41.42 39.55 44.10 48.75 49.97 50.90 51.59 52.09 53.32 53.41 52.85 53.21 53.68 54.34 56.56 57.42 57.83 56.78 56.88 56.46 55.21 54.93
37.47 33.19 27.49 29.19 28.11 30.22 33.00 33.36 34.39 38.48 39.29 39.48 38.89 36.63 34.43 39.30 37.99 39.15 34.40 40.21 42.68 35.54 33.34 37.93 45.96 49.38 50.32 51.41 51.98 52.77 52.44 52.82 52.54 52.71 52.88 53.74 56.25 56.35 56.96 56.87 56.84 55.73 54.38 54.60
33.98 34.05 26.96 30.23 35.60 38.45 37.20 37.70 36.77 38.27 38.23 36.89 37.66 38.51 37.83 36.96 36.37 38.79 37.95 35.13 33.54 37.04 37.05 43.11 48.85 51.10 51.22 51.04 51.45 51.82 51.73 53.39 54.26 53.28 52.80 53.59 56.32 56.13 56.09 56.72 56.68 56.11 55.06 54.85
35.99 33.68 31.18 36.17 35.19 35.91 37.31 37.49 37.12 42.04 41.38 41.48 39.42 37.07 34.73 34.33 37.13 34.20 33.63 33.13 33.19 38.35 45.14 48.87 50.78 51.36 52.30 52.94 53.14 52.58 52.33 51.80 54.31 55.92 53.85 54.37 55.78 55.86 56.17 56.33 56.20 55.79 55.42 54.53
33.68 34.61 38.57 37.03 36.90 36.35 37.59 39.16 38.87 42.14 39.44 36.15 35.07 30.72 32.05 39.10 35.21 33.70 37.74 35.82 42.27 45.90 48.21 50.48 51.29 51.52 51.84 51.97 52.25 52.60 52.61 52.10 52.95 54.89 55.28 54.86 55.76 56.59 55.48 54.40 55.75 56.10 56.12 55.46
MSLP
1025.51 1024.86 1023.94 1022.59 1021.35 1019.64 1017.12 1015.24 1011.94 1012.18 1012.34 1010.73 1009.07 1007.66 1006.88 1006.72 1005.80 1005.56 1005.24 1004.95 1004.52 1004.05 1003.47 1002.51 1001.85 1001.73 1001.93 1002.61 1002.89 1003.44 1004.01 1004.01 1003.82 1004.28 1005.07 1005.22 1004.67 1004.36 1005.21 1005.26 1005.96 1006.11 1006.43 1005.98
1025.66 1024.87 1024.04 1022.71 1021.85 1021.09 1019.41 1015.89 1013.08 1011.76 1011.69 1009.67 1008.34 1007.68 1007.37 1006.73 1006.11 1005.52 1005.16 1004.85 1004.56 1004.38 1003.79 1003.11 1002.01 1001.86 1002.61 1003.17 1003.14 1002.91 1004.32 1004.13 1004.04 1004.79 1005.45 1005.58 1005.02 1005.26 1005.49 1006.09 1006.39 1006.15 1006.07 1005.69
1025.83 1025.03 1024.07 1022.95 1021.83 1020.88 1019.80 1016.48 1013.07 1011.32 1010.93 1010.97 1010.29 1009.05 1007.55 1006.85 1006.41 1006.00 1005.58 1005.08 1004.89 1004.61 1004.03 1003.43 1002.71 1002.25 1003.40 1003.76 1003.50 1004.04 1004.03 1003.74 1003.67 1003.44 1003.42 1003.68 1004.64 1005.24 1005.67 1005.95 1006.16 1005.73 1005.58 1005.80
1025.97 1025.24 1024.31 1023.22 1022.08 1020.50 1019.72 1016.99 1015.49 1015.64 1012.29 1010.99 1011.29 1010.30 1009.06 1007.77 1006.83 1006.51 1006.22 1005.35 1004.98 1004.68 1004.24 1003.47 1003.02 1002.75 1003.68 1004.10 1004.40 1004.38 1004.28 1003.73 1003.75 1003.38 1003.39 1003.64 1004.11 1004.58 1005.35 1005.64 1005.81 1005.83 1005.75 1005.65
1025.96 1025.42 1024.64 1023.75 1022.65 1020.85 1018.98 1018.75 1018.65 1017.10 1014.67 1013.25 1011.85 1010.69 1009.35 1009.20 1008.61 1007.87 1006.33 1006.39 1006.26 1005.75 1004.96 1004.21 1003.36 1002.95 1003.07 1003.08 1004.35 1004.30 1004.50 1003.79 1004.07 1004.32 1004.25 1004.19 1004.36 1004.70 1005.16 1005.50 1005.66 1005.84 1006.09 1006.06
1025.97 1025.43 1024.88 1024.28 1023.47 1021.99 1020.54 1020.94 1020.14 1019.72 1015.38 1013.48 1012.28 1011.29 1011.50 1010.51 1010.24 1008.63 1008.25 1008.12 1007.40 1006.15 1006.16 1006.30 1005.42 1004.00 1003.51 1003.57 1003.68 1004.04 1004.23 1004.23 1004.42 1004.32 1004.97 1005.01 1005.02 1005.00 1005.28 1005.33 1005.77 1006.06 1006.09 1006.30
1026.07 1025.48 1025.05 1024.65 1024.18 1023.77 1022.36 1022.40 1022.24 1019.62 1015.93 1014.36 1013.26 1013.13 1012.59 1011.61 1010.89 1010.33 1009.36 1008.99 1008.11 1007.97 1007.62 1006.33 1005.74 1004.41 1004.29 1004.03 1004.47 1004.47 1004.33 1004.41 1004.57 1005.07 1005.87 1005.19 1004.84 1005.43 1005.80 1005.92 1005.86 1006.28 1006.70 1007.25
1025.96 1025.52 1025.27 1024.93 1024.53 1024.16 1022.78 1023.29 1022.86 1021.53 1018.12 1015.73 1014.26 1013.90 1013.16 1012.29 1011.14 1010.38 1009.53 1009.20 1009.33 1009.08 1007.67 1005.63 1004.57 1004.31 1004.57 1004.05 1004.90 1004.75 1004.92 1004.30 1005.01 1005.49 1005.70 1006.00 1005.78 1005.73 1006.00 1005.93 1005.75 1006.10 1006.66 1007.65
1025.85 1025.46 1025.27 1024.97 1024.64 1024.30 1023.00 1023.63 1023.28 1022.56 1020.04 1016.02 1016.19 1015.20 1014.11 1012.94 1011.69 1010.66 1009.72 1009.68 1009.92 1009.32 1007.60 1005.98 1004.40 1003.36 1003.56 1003.74 1004.50 1004.38 1005.02 1004.61 1005.20 1005.42 1005.50 1005.15 1004.32 1005.47 1006.18 1006.37 1005.89 1005.94 1006.95 1007.92
1025.63 1025.35 1025.12 1024.90 1024.73 1024.29 1023.61 1023.38 1023.61 1022.67 1020.80 1017.39 1017.24 1015.48 1015.35 1014.46 1013.47 1012.40 1011.32 1011.32 1009.95 1009.38 1007.70 1006.89 1005.73 1004.04 1003.02 1002.70 1003.43 1004.40 1004.48 1004.27 1004.27 1004.50 1004.60 1004.21 1004.84 1005.78 1006.37 1006.35 1006.30 1006.74 1007.34 1008.16
1025.38 1025.15 1024.89 1024.74 1024.60 1024.30 1023.84 1023.47 1023.78 1023.13 1021.49 1018.87 1018.00 1017.34 1016.55 1015.56 1014.81 1013.87 1012.82 1011.89 1010.82 1009.54 1008.77 1008.22 1007.13 1006.22 1004.55 1003.42 1002.76 1003.47 1003.55 1003.94 1003.77 1003.87 1003.89 1004.26 1005.04 1006.08 1006.02 1006.08 1006.58 1007.19 1007.74 1008.58
1025.14 1024.84 1024.64 1024.48 1024.37 1024.22 1024.07 1022.99 1023.20 1023.64 1023.02 1019.50 1018.39 1017.87 1017.33 1016.65 1016.12 1015.99 1014.89 1013.48 1012.86 1011.79 1010.51 1008.93 1008.29 1008.04 1006.03 1004.99 1004.71 1005.16 1004.50 1003.97 1003.66 1003.97 1003.83 1004.35 1005.10 1005.29 1006.02 1006.35 1006.86 1007.52 1008.11 1009.08
1024.69 1024.51 1024.31 1024.17 1024.06 1023.93 1023.86 1023.34 1023.01 1023.01 1021.49 1018.78 1016.70 1015.67 1015.63 1016.10 1016.11 1016.36 1015.95 1013.76 1013.45 1012.83 1012.89 1010.88 1009.37 1007.75 1008.17 1007.53 1006.07 1005.88 1005.41 1005.48 1004.35 1004.33 1004.41 1004.68 1005.27 1005.99 1006.43 1006.65 1006.98 1007.74 1008.53 1009.62
1024.25 1024.05 1023.88 1023.79 1023.68 1023.60 1023.54 1022.73 1022.38 1022.58 1022.20 1020.03 1015.89 1015.50 1015.30 1015.15 1015.31 1015.46 1015.52 1014.75 1014.41 1014.15 1013.17 1011.28 1009.46 1008.27 1007.61 1006.56 1007.06 1007.09 1006.21 1006.11 1004.71 1004.01 1004.51 1004.99 1005.34 1005.65 1006.27 1006.90 1007.61 1008.29 1009.17 1010.06
1023.68 1023.53 1023.38 1023.28 1023.22 1023.21 1022.91 1022.03 1021.67 1021.93 1022.55 1019.83 1016.93 1015.58 1013.95 1014.16 1014.13 1014.42 1014.62 1014.98 1014.80 1014.07 1013.12 1012.02 1009.61 1008.31 1007.96 1006.92 1006.67 1005.45 1005.76 1006.04 1005.11 1003.79 1003.73 1004.04 1004.02 1005.24 1006.12 1006.87 1007.67 1008.54 1009.33 1010.33
1023.03 1022.92 1022.82 1022.77 1022.80 1022.92 1022.09 1020.96 1021.45 1022.28 1022.53 1021.79 1017.68 1014.37 1013.79 1013.59 1013.43 1013.50 1013.75 1013.96 1014.20 1013.46 1012.26 1011.15 1010.52 1008.92 1008.57 1006.38 1005.01 1004.11 1004.81 1005.03 1004.73 1004.06 1004.62 1004.39 1004.91 1005.04 1006.08 1006.73 1007.70 1008.71 1009.49 1010.39
1022.42 1022.36 1022.29 1022.31 1022.39 1022.32 1021.81 1021.47 1021.73 1022.07 1022.70 1021.92 1018.91 1014.54 1013.10 1013.23 1012.92 1012.62 1012.88 1013.38 1013.00 1012.60 1011.67 1010.42 1009.46 1009.29 1008.90 1006.38 1004.97 1004.56 1004.59 1004.61 1004.76 1004.99 1005.19 1005.30 1005.37 1005.64 1006.30 1007.00 1008.05 1009.18 1009.86 1010.90
1021.60 1021.65 1021.72 1021.82 1022.03 1022.14 1021.71 1020.71 1021.53 1021.93 1022.02 1021.32 1019.26 1015.24 1013.11 1012.94 1012.20 1011.38 1012.01 1012.00 1012.15 1011.61 1010.59 1009.45 1008.72 1008.14 1007.96 1006.30 1004.97 1004.56 1004.74 1004.84 1004.79 1005.02 1005.31 1005.33 1005.24 1006.05 1006.71 1007.62 1008.52 1009.32 1010.18 1011.25
1020.90 1021.08 1021.44 1021.46 1021.36 1021.01 1020.16 1020.75 1021.23 1021.43 1021.29 1020.05 1018.43 1015.62 1012.26 1012.61 1012.29 1011.92 1011.60 1011.07 1010.37 1009.61 1009.31 1008.48 1008.03 1006.95 1005.74 1005.03 1004.98 1004.55 1004.63 1004.73 1004.69 1004.90 1005.31 1005.59 1005.57 1006.05 1006.82 1007.52 1008.37 1009.03 1010.11 1011.25
1020.56 1021.17 1021.28 1020.02 1019.50 1020.31 1020.66 1020.93 1021.01 1021.23 1020.55 1019.21 1016.91 1015.23 1013.41 1012.91 1012.23 1012.44 1011.40 1010.14 1008.62 1007.92 1007.55 1007.25 1006.81 1005.52 1005.27 1005.12 1005.01 1004.62 1004.82 1005.14 1005.18 1004.96 1005.19 1005.37 1005.44 1006.00 1006.62 1007.12 1007.85 1008.61 1009.97 1011.18
1020.59 1020.54 1019.52 1019.27 1020.08 1020.16 1019.80 1019.91 1019.93 1019.19 1018.78 1017.40 1015.73 1014.66 1013.40 1012.80 1012.71 1012.16 1011.27 1010.39 1008.83 1006.84 1005.59 1005.90 1004.74 1004.14 1004.39 1004.90 1004.99 1005.04 1005.05 1005.10 1005.27 1005.44 1005.20 1005.25 1005.35 1005.72 1006.30 1007.09 1007.94 1008.87 1010.15 1011.25
1019.70 1019.49 1019.41 1019.44 1019.34 1019.10 1019.02 1018.22 1017.99 1017.80 1015.97 1014.38 1013.95 1013.75 1013.55 1012.64 1012.90 1012.26 1011.11 1010.03 1009.29 1006.69 1005.73 1005.26 1003.58 1003.25 1003.82 1004.23 1004.51 1004.71 1004.83 1005.05 1005.16 1005.48 1005.54 1005.56 1005.70 1005.67 1006.28 1007.23 1008.19 1009.24 1010.35 1011.39
1019.51 1019.28 1018.92 1018.72 1018.54 1018.39 1017.54 1016.35 1015.92 1015.66 1014.56 1013.77 1013.77 1014.20 1014.48 1013.32 1012.92 1011.83 1010.84 1009.73 1008.37 1007.09 1005.79 1004.37 1003.26 1003.70 1004.48 1004.83 1005.03 1005.22 1005.39 1005.28 1005.03 1005.16 1005.52 1005.59 1005.79 1006.15 1006.63 1007.48 1008.45 1009.51 1010.53 1011.52
1019.22 1018.87 1018.61 1017.99 1016.97 1016.44 1015.78 1015.77 1015.78 1015.34 1014.96 1014.51 1014.51 1014.40 1014.34 1013.25 1012.07 1010.94 1009.82 1008.44 1007.63 1006.76 1005.59 1004.36 1004.16 1004.57 1005.12 1005.36 1005.59 1005.47 1005.45 1005.47 1005.23 1005.06 1005.21 1005.38 1005.79 1006.35 1006.99 1007.68 1008.55 1009.49 1010.49 1011.43
1018.78 1018.44 1017.32 1015.99 1015.18 1015.24 1015.84 1015.97 1015.86 1015.52 1015.32 1015.15 1014.55 1013.88 1013.65 1012.64 1011.25 1009.91 1008.83 1007.79 1006.39 1005.32 1004.20 1004.29 1004.58 1005.34 1005.57 1005.77 1006.02 1005.90 1005.85 1005.70 1005.51 1005.35 1005.15 1005.33 1005.84 1006.60 1007.16 1007.93 1008.82 1009.67 1010.58 1011.41
1018.33 1017.84 1016.58 1015.04 1014.69 1014.16 1014.33 1014.41 1013.77 1013.44 1013.65 1013.78 1014.08 1013.29 1012.54 1011.47 1010.28 1008.87 1007.39 1006.12 1004.88 1004.45 1004.70 1004.91 1005.69 1005.87 1006.00 1006.12 1006.19 1006.19 1006.11 1006.06 1005.89 1005.75 1005.61 1005.55 1006.06 1006.65 1007.30 1008.14 1008.91 1009.75 1010.54 1011.31
1017.20 1015.75 1015.18 1014.89 1014.43 1013.81 1013.50 1013.46 1013.45 1013.46 1013.41 1013.52 1013.89 1013.01 1011.93 1010.66 1009.53 1008.00 1006.33 1005.44 1004.90 1005.28 1005.32 1005.75 1006.30 1006.37 1006.42 1006.49 1006.39 1006.23 1006.21 1006.15 1006.03 1006.00 1006.00 1005.92 1006.24 1006.83 1007.57 1008.18 1008.97 1009.81 1010.58 1011.40
Wind_Speed
22 26 27 28 31 35 9 6 4 3 4 7 4 10 12 5 13 11 8 5 6 8 8 12 20 20 17 11 14 16 10 7 12 15 5 4 5 4 8 6 7 3 6 10
21 24 26 27 29 26 8 9 4 3 4 6 6 4 10 11 13 14 12 11 6 6 7 6 16 18 9 9 15 15 11 8 8 7 6 6 9 8 5 2 3 8 8 4
20 22 24 27 29 28 7 6 5 2 3 1 6 7 11 9 5 11 14 16 15 16 15 10 6 13 6 9 13 6 11 10 14 11 13 13 14 12 12 10 6 8 9 12
20 21 23 26 28 30 7 3 5 5 4 2 10 6 6 9 5 4 6 10 15 16 15 15 13 10 8 7 8 8 9 13 15 15 6 10 13 14 14 13 12 10 11 12
18 20 20 22 27 32 2 7 6 7 7 8 9 3 2 8 8 5 4 8 9 9 15 12 8 11 9 8 11 11 7 8 11 10 9 10 12 10 12 12 11 12 13 14
17 17 18 19 22 21 5 5 1 4 5 5 6 3 6 5 10 4 5 8 13 9 7 11 13 10 4 3 6 11 10 9 12 11 10 9 9 11 12 10 8 9 11 6
15 16 16 17 16 18 5 4 3 6 7 6 6 10 11 12 10 12 12 15 10 7 15 13 13 6 2 6 5 3 10 11 5 6 9 13 5 7 1 6 8 6 7 3
13 14 15 14 13 15 7 4 3 4 8 9 10 8 11 12 11 14 11 9 7 13 11 7 6 9 10 9 1 4 5 8 5 5 3 11 5 7 7 8 7 5 7 6
12 12 13 13 12 12 8 3 3 2 7 2 7 13 11 9 9 11 5 5 9 5 5 7 12 13 14 15 10 2 5 10 8 9 11 16 6 10 6 3 9 6 8 8
11 12 11 12 11 9 8 2 5 3 7 6 6 5 9 7 7 7 8 8 5 4 5 7 6 10 5 15 18 11 14 13 14 10 8 5 9 11 9 8 3 7 7 8
12 10 10 9 9 9 7 3 1 6 6 14 15 14 13 10 8 8 11 9 6 6 6 3 2 5 6 7 10 18 12 12 9 9 12 6 14 11 8 7 7 9 8 10
12 10 10 9 9 8 8 5 2 1 6 9 17 19 19 18 16 11 5 9 7 4 6 3 5 3 4 4 6 2 7 3 5 8 5 9 16 4 7 6 10 9 9 9
13 12 10 10 9 10 7 5 3 4 7 13 11 7 3 9 14 14 7 6 4 2 5 5 4 6 5 3 2 3 3 2 3 6 8 10 13 6 9 7 7 8 9 12
13 12 12 11 10 10 9 7 4 3 4 6 5 2 8 6 8 11 18 15 5 6 4 6 5 4 3 10 8 3 5 2 3 3 4 6 8 12 11 9 10 11 12 13
13 13 13 12 11 9 9 7 6 6 5 7 11 19 11 3 9 18 16 14 12 8 4 3 5 3 4 4 3 10 9 8 10 6 7 9 9 14 14 14 14 14 15 14
15 15 14 13 8 5 6 4 4 3 4 4 6 8 7 9 7 9 12 12 9 7 6 5 4 5 5 5 8 6 16 7 2 1 5 2 2 13 16 16 15 14 13 14
16 15 14 12 8 6 5 6 3 7 3 3 6 6 3 5 6 5 6 9 7 7 7 8 8 4 4 6 7 7 5 4 3 3 4 7 10 8 14 15 15 12 13 13
17 15 13 8 6 5 7 8 14 8 3 4 5 7 7 2 3 5 5 7 7 7 7 5 8 7 5 6 11 7 3 1 3 6 4 3 8 14 15 16 16 16 15 14
9 8 3 4 5 4 2 6 5 7 6 3 4 5 3 2 0 3 5 6 7 5 8 9 7 10 11 7 10 12 7 3 2 6 6 6 11 14 16 17 17 16 15 14
5 5 4 5 4 11 6 3 3 3 4 6 7 8 9 5 3 1 4 5 7 8 10 6 10 13 15 8 9 11 6 3 3 5 8 8 10 13 16 16 14 13 14 14
2 4 4 5 6 4 4 3 4 5 4 6 7 12 12 6 7 3 5 3 5 5 7 10 7 8 15 15 13 10 9 6 4 5 5 6 6 11 13 14 13 13 15 14
5 3 0 3 4 3 5 5 5 5 6 7 7 4 6 4 3 6 5 4 4 7 7 6 6 5 7 16 19 18 13 10 11 9 10 8 4 5 10 12 13 14 14 15
1 2 4 3 3 6 6 8 5 5 5 2 3 2 3 4 6 5 4 5 6 4 5 4 1 11 7 6 5 6 6 8 12 12 11 8 6 7 11 13 13 15 15 15
2 4 4 5 5 6 5 6 8 7 7 9 7 2 3 4 7 4 6 5 4 3 3 4 5 7 7 6 4 2 3 3 6 9 11 9 9 9 11 13 15 16 16 16
3 3 5 8 7 2 2 5 4 6 5 4 4 4 4 5 5 5 5 5 6 6 7 5 7 6 5 5 3 2 2 1 2 5 8 10 10 11 12 13 14 15 15 15
3 4 6 6 6 6 5 6 7 2 5 3 3 4 4 6 4 6 8 6 5 4 3 5 4 3 2 1 1 2 3 4 3 2 6 9 11 12 13 15 15 15 16 16
4 5 5 7 8 7 6 6 6 5 6 2 3 4 7 3 4 5 6 7 1 4 3 3 3 2 3 5 5 4 4 5 4 3 5 9 10 12 14 16 15 15 14 14
Wind_Direction
352 348 345 349 349 345 337 303 281 77 234 233 226 239 228 336 269 211 256 274 275 280 280 253 220 214 212 189 177 197 198 243 178 200 88 334 295 244 186 248 171 244 304 293
349 350 347 349 348 356 320 319 301 138 257 262 231 224 256 242 256 249 243 243 242 300 292 254 235 217 119 181 187 193 165 202 168 181 173 181 220 192 218 229 284 266 286 306
349 346 350 348 345 346 292 296 300 123 234 27 317 340 266 261 204 260 267 266 265 265 264 255 259 229 160 203 213 33 195 210 226 214 218 198 201 200 202 214 239 270 241 282
348 350 352 351 345 340 292 10 45 7 321 115 330 301 298 292 273 240 257 258 240 251 249 250 224 210 173 182 156 189 202 212 225 243 263 200 212 197 197 215 236 253 270 290
349 353 356 355 349 332 26 340 341 339 289 291 286 174 240 299 334 295 268 283 348 272 246 269 263 202 204 190 179 187 198 214 199 190 180 194 208 201 204 221 249 264 276 285
352 353 359 359 358 344 10 8 3 287 297 302 279 58 348 321 331 264 312 343 316 282 355 315 302 308 54 342 198 188 184 165 188 185 182 177 219 216 219 231 234 260 275 339
348 353 356 359 5 355 342 33 305 287 297 302 340 316 305 296 303 291 300 306 298 25 318 276 240 210 266 139 114 229 172 167 173 130 187 219 114 128 344 262 274 246 253 257
344 349 349 354 1 357 334 25 337 322 294 318 290 329 312 306 286 267 286 304 353 312 297 254 178 206 223 231 222 194 247 189 152 171 227 314 223 195 203 221 270 210 229 157
333 338 340 343 360 359 316 78 327 304 301 62 340 309 297 303 320 283 242 329 328 278 261 259 228 193 206 191 192 143 226 238 176 201 205 214 226 132 148 142 258 191 213 172
320 324 329 338 341 349 316 62 317 275 281 283 325 314 336 316 309 289 289 346 303 248 239 235 245 246 294 182 191 184 183 188 197 195 206 213 125 144 152 221 100 137 179 165
312 310 317 321 328 342 316 320 264 327 289 295 277 291 279 278 261 279 3 294 186 271 249 193 283 269 256 267 203 181 181 183 202 197 216 215 141 152 216 101 118 146 161 158
303 304 305 304 310 317 318 276 124 261 253 287 313 284 275 274 278 299 262 318 312 350 290 257 148 288 286 352 199 178 235 260 166 209 197 113 170 211 159 158 155 164 164 154
294 296 291 297 293 299 296 285 300 258 273 280 249 256 228 234 237 238 253 229 282 210 335 311 288 232 135 299 350 325 173 237 210 161 156 160 184 154 166 175 145 151 146 153
290 293 290 282 282 286 302 276 273 286 294 279 304 294 261 239 223 215 220 263 303 318 319 288 259 262 234 188 192 233 335 236 191 166 140 158 190 191 171 148 136 135 137 148
281 282 282 275 282 279 279 265 265 254 247 318 304 300 274 298 231 236 227 225 243 250 252 267 254 273 234 180 271 194 167 203 232 227 193 219 197 180 169 159 154 149 144 147
276 277 278 275 264 281 273 240 170 172 183 257 285 351 286 288 246 227 214 212 221 231 217 225 250 303 267 244 204 153 177 201 293 292 339 185 76 161 167 159 151 151 150 148
275 272 266 271 240 231 243 349 39 119 81 278 286 269 158 292 269 192 193 193 210 227 225 236 234 188 245 259 231 147 159 216 199 199 160 166 167 158 158 147 143 145 138 140
264 258 252 246 248 253 250 243 183 186 256 234 269 270 261 36 315 209 170 180 204 203 239 230 234 197 210 249 222 169 138 52 206 201 180 352 132 143 146 143 148 148 146 142
264 249 174 223 223 215 231 103 148 197 262 248 239 269 331 2 213 341 229 194 195 191 218 224 224 214 219 214 214 232 229 226 22 165 168 157 160 154 154 157 163 161 155 154
161 122 203 212 176 105 150 160 181 184 224 230 255 247 255 330 312 315 267 227 239 187 207 196 229 239 228 234 230 237 164 146 191 185 188 169 169 169 171 176 174 169 161 153
119 189 218 79 119 201 203 211 209 183 227 234 244 244 257 223 257 278 273 348 288 238 169 205 213 220 215 217 224 225 226 234 235 270 285 197 201 182 174 173 173 161 159 161
171 162 268 159 211 233 238 205 164 221 252 182 232 224 222 220 208 236 230 251 277 244 139 223 229 185 173 207 215 227 232 255 252 237 244 246 234 232 171 166 164 158 157 150
91 217 163 220 188 235 232 208 187 212 224 259 219 191 288 199 226 223 255 230 243 291 215 229 288 108 138 155 172 202 227 248 248 232 234 240 204 171 162 155 156 154 151 154
163 160 191 233 190 229 274 334 335 330 296 306 302 174 237 235 194 240 239 225 261 229 228 223 149 137 123 126 113 157 190 237 246 231 224 214 192 162 158 157 157 156 156 154
208 209 241 215 247 232 190 244 266 264 266 263 264 231 218 208 226 219 239 220 229 222 204 199 118 125 127 118 95 70 40 32 241 228 214 199 176 165 158 155 158 157 150 151
236 233 257 247 253 247 220 249 266 339 312 261 213 268 213 217 222 204 223 231 240 140 75 65 134 151 114 5 339 345 337 343 322 268 226 199 165 170 160 154 159 154 154 152
242 232 232 273 285 286 304 315 318 328 289 335 305 246 225 310 229 237 229 227 346 43 71 89 40 1 342 319 308 302 301 292 302 281 213 204 169 157 154 157 159 153 154 153